Weather in Belostok

Russia / Omsk Oblast     54°09′59″N   72°46′54″E
temp.,
°C
wind,
m/s
gust,
m/s
humid.,
%
clouds,
%
prec.,
mm/h
press.,
hPa
HPBL,
m
14 april, wed
wed1400:000w35966 0.0 103977
03:000w369727 0.0 1037118
06:000wsw38955 0.0 1037152
09:00+2w5119398 0.0 1036304
12:00+6w71182100 0.0 1034435
15:00+9w711715 0.0 1031507
18:00+9w613745 0.0 1030493
21:00+5w410864 0.0 1030206
15 april, thu
thu1500:00+4w36911 0.0 1029100
03:00+4w34944 0.0 102861
06:00+4w35949 0.0 102865
09:00+7w46863 0.0 1027180
12:00+13w56735 0.0 1026431
15:00+16w56625 0.0 1024778
18:00+16w46665 0.0 1023740
21:00+12w35835 0.0 102262
16 april, fri
fri1600:00+10wsw36865 0.0 102083
03:00+9wsw46865 0.0 1019101
06:00+8wsw48875 0.0 1018122
09:00+11wsw510735 0.0 1016305
12:00+15w68515 0.0 1015718
15:00+17wnw56395 0.0 10141197
18:00+15n886270 0.0 1014951
21:00+6nne81380100 0.0 1018656
17 april, sat
sat1700:00+5ne81181100 0.0 1019790
03:00+3ne71088100 0.1 1019729
06:000ne698499 0.4 1021549
09:00+1ene556755 0.1 1021625
12:00+3ene225747 0.1 1019921
15:00+5wnw235192 0.0 10181410
18:00+6w464699 0.0 10161696
21:00+4nw365352 0.0 1016283
18 april, sun
sun1800:00+2sw48725 0.0 1014184
03:00+1nw71182100 0.1 1015940
06:00−3nnw59755 0.1 1017650
09:00−2nnw674899 0.0 1018772
12:00+1nnw4539100 0.0 10181054
15:00+3nw443191 0.0 10181539
18:00+4nw442870 0.0 10182189
21:00+1nne694946 0.0 1020569